Location: Hastringsfeld
(50.9620°N, 10.4787°E)
Time: 11:31:26
(UTC+00:00)

ATLAS 3B R/B - Pass Details

Date: 26 September 2023
Orbit: 954 x 1241 km, 63.8° (Epoch: 27 October)

Event Time Altitude Azimuth Distance (km) Brightness Sun altitude
Rises 03:45:17 0° 316° (NW) 4,126 5.5 -14.0°
Reaches altitude 10° 03:48:04 10° 312° (NW) 3,182 4.9 -13.6°
Maximum altitude 03:55:33 56° 238° (WSW) 1,454 3.1 -12.4°
Drops below altitude 10° 04:03:04 10° 163° (SSE) 3,190 5.3 -11.3°
Sets 04:05:52 0° 159° (SSE) 4,136 5.9 -10.8°
